Location: Unspecified
(0.0000°N, 0.0000°E)
Time: 11:45:22
(UTC+02:00)

ADEOS II - Visible Passes

Search period start: 04 August 2015 00:00
Search period end: 14 August 2015 00:00
Orbit: 800 x 802 km, 98.3° (Epoch: 04 August)

Date Brightness Start Highest point End Pass type
(mag) Time Alt. Az. Time Alt. Az. Time Alt. Az.
04 Aug 4.1 06:10:21 10° NE 06:14:36 26° E 06:18:59 10° SSE visible
05 Aug 4.9 05:46:25 10° ENE 05:48:20 12° E 05:50:40 10° SE visible
05 Aug 2.6 07:23:08 10° N 07:28:01 40° WNW 07:32:52 10° SW visible
06 Aug 2.0 06:56:35 10° N 07:01:49 83° WNW 07:07:06 10° SSW visible
07 Aug 3.0 06:30:39 10° NNE 06:35:38 47° ESE 06:40:42 10° S visible
08 Aug 4.2 06:05:27 10° NE 06:09:26 23° E 06:13:36 10° SSE visible
09 Aug 5.0 05:42:14 10° E 05:43:09 11° E 05:44:34 10° ESE visible
09 Aug 2.4 07:17:51 10° N 07:22:51 45° WNW 07:27:50 10° SSW visible
10 Aug 2.1 06:51:25 10° NNE 06:56:39 87° E 07:01:57 10° S visible
11 Aug 3.3 06:25:35 10° NNE 06:30:28 42° ESE 06:35:26 10° S visible
12 Aug 4.4 06:00:33 10° NE 06:04:15 20° E 06:08:10 10° SSE visible
12 Aug 3.1 07:39:36 10° NNW 07:43:54 25° W 07:48:04 10° SW visible
13 Aug 2.3 07:12:35 10° N 07:17:41 51° WNW 07:22:46 10° SSW visible
